Location: Ailly
(50.0793°N, 1.9944°E)
Time: 16:12:41
(UTC+00:00)

BREEZE-M DEB (TANK) - Pass Details

Date: 15 January 2026
Orbit: 290 x 14651 km, 49.5° (Epoch: 10 February)

Event Time Altitude Azimuth Distance (km) Brightness Sun altitude
Rises 03:00:10 0° 277° (W) 14,693 9.2 -44.6°
Enters shadow 03:10:05 - 279° (W) 12,501 8.8 -43.1°
Exits shadow 03:45:42 77° 165° (SSE) 1,703 4.5 -37.6°
Drops below altitude 10° 03:50:51 10° 114° (ESE) 2,547 6.2 -36.8°
Sets 03:52:18 0° 113° (ESE) 3,113 6.8 -36.6°
